GW6833 Weather Reports


Display with metric or nautical units.
time (UTC)temp
F
wind
direction
speed
MPH
gust
MPH
rain 1hr
in
rain 24hr
in
rain mn
in
humidity
%
barometer
mb
20260906211300 82 115 7.0 14.0 0.00 0.00 0.00 35 1019.7
20260906210755 84 134 8.0 17.0 0.00 0.00 0.00 33 1019.6
20260906210255 85 185 2.0 10.0 0.00 0.00 0.00 31 1019.5
20260906205750 85 128 14.0 23.0 0.00 0.00 0.00 32 1019.6
20260906205247 86 151 10.0 12.0 0.00 0.00 0.00 30 1019.5
20260906204742 86 131 11.0 15.0 0.00 0.00 0.00 31 1019.6
20260906204241 84 168 10.0 19.0 0.00 0.00 0.00 31 1019.7
20260906203740 84 140 9.0 17.0 0.00 0.00 0.00 33 1019.8
20260906203236 85 118 5.0 5.0 0.00 0.00 0.00 33 1019.8
20260906202733 85 122 9.0 15.0 0.00 0.00 0.00 33 1019.8
20260906202232 84 121 8.0 10.0 0.00 0.00 0.00 35 1019.8
20260906201727 85 132 11.0 12.0 0.00 0.00 0.00 34 1020.0
20260906201226 84 129 14.0 14.0 0.00 0.00 0.00 35 1020.0
20260906200722 84 117 8.0 19.0 0.00 0.00 0.00 34 1020.1
20260906200218 85 132 12.0 15.0 0.00 0.00 0.00 34 1020.0
20260906195713 84 133 12.0 17.0 0.00 0.00 0.00 33 1020.1
20260906195210 85 132 9.0 13.0 0.00 0.00 0.00 32 1020.3
20260906194705 85 148 4.0 10.0 0.00 0.00 0.00 29 1020.3
20260906194200 85 177 6.0 9.0 0.00 0.00 0.00 27 1020.3
20260906193655 85 117 2.0 8.0 0.00 0.00 0.00 27 1020.2
20260906193150 84 115 10.0 10.0 0.00 0.00 0.00 28 1020.3
20260906192646 83 347 2.0 8.0 0.00 0.00 0.00 29 1020.5
20260906192145 84 123 4.0 10.0 0.00 0.00 0.00 29 1020.5
20260906191640 84 333 1.0 3.0 0.00 0.00 0.00 30 1020.7
20260906191139 83 209 4.0 7.0 0.00 0.00 0.00 29 1020.6
20260906190634 83 165 6.0 11.0 0.00 0.00 0.00 30 1020.9
20260906190129 82 124 7.0 12.0 0.00 0.00 0.00 31 1020.9
20260906185628 82 94 8.0 9.0 0.00 0.00 0.00 33 1020.9
20260906185127 82 140 10.0 11.0 0.00 0.00 0.00 33 1021.3
20260906184622 82 113 11.0 13.0 0.00 0.00 0.00 35 1021.3
20260906184118 82 133 9.0 15.0 0.00 0.00 0.00 36 1021.4
20260906183613 81 113 7.0 13.0 0.00 0.00 0.00 37 1021.4
20260906183109 81 96 4.0 8.0 0.00 0.00 0.00 37 1021.5
20260906182603 81 162 11.0 16.0 0.00 0.00 0.00 39 1021.4
20260906182100 81 101 3.0 9.0 0.00 0.00 0.00 40 1021.5
20260906181555 82 147 6.0 12.0 0.00 0.00 0.00 34 1021.7
20260906181051 83 121 8.0 11.0 0.00 0.00 0.00 35 1021.8
20260906180551 82 73 6.0 6.0 0.00 0.00 0.00 36 1021.8
20260906180050 81 71 3.0 8.0 0.00 0.00 0.00 35 1021.9
20260906175549 83 114 9.0 9.0 0.00 0.00 0.00 34 1022.2
20260906175044 82 77 4.0 7.0 0.00 0.00 0.00 35 1022.2
20260906174542 81 93 2.0 6.0 0.00 0.00 0.00 36 1022.2
20260906174037 81 326 10.0 14.0 0.00 0.00 0.00 38 1022.0
20260906173532 79 243 3.0 6.0 0.00 0.00 0.00 41 1022.2
20260906173029 79 255 3.0 5.0 0.00 0.00 0.00 41 1022.2
20260906172528 79 52 1.0 6.0 0.00 0.00 0.00 43 1022.5
20260906172024 78 124 3.0 4.0 0.00 0.00 0.00 44 1022.2
20260906171519 78 181 0.0 4.0 0.00 0.00 0.00 44 1022.6
20260906171014 77 202 3.0 4.0 0.00 0.00 0.00 44 1022.6
20260906170510 77 96 3.0 4.0 0.00 0.00 0.00 44 1022.5
20260906170009 77 194 2.0 9.0 0.00 0.00 0.00 45 1022.8
20260906165506 77 218 6.0 9.0 0.00 0.00 0.00 45 1022.5
20260906165001 77 189 3.0 5.0 0.00 0.00 0.00 46 1022.6
20260906164459 77 196 5.0 7.0 0.00 0.00 0.00 46 1022.8
20260906163956 76 222 0.0 4.0 0.00 0.00 0.00 48 1022.9
20260906163451 75 191 3.0 7.0 0.00 0.00 0.00 50 1022.8
20260906162950 74 146 7.0 8.0 0.00 0.00 0.00 51 1022.9
20260906162448 74 134 4.0 10.0 0.00 0.00 0.00 52 1022.9
20260906161943 74 168 5.0 10.0 0.00 0.00 0.00 51 1023.1
20260906161444 73 175 4.0 7.0 0.00 0.00 0.00 53 1023.1
20260906160943 73 158 5.0 9.0 0.00 0.00 0.00 54 1023.1
20260906160442 73 135 9.0 10.0 0.00 0.00 0.00 55 1023.0
20260906155941 73 185 8.0 9.0 0.00 0.00 0.00 55 1022.9
20260906155439 72 173 5.0 10.0 0.00 0.00 0.00 56 1023.1
20260906154936 71 143 5.0 6.0 0.00 0.00 0.00 58 1022.8
20260906154431 71 145 6.0 6.0 0.00 0.00 0.00 58 1022.9
20260906153929 70 156 6.0 11.0 0.00 0.00 0.00 60 1022.8
20260906153428 69 129 11.0 12.0 0.00 0.00 0.00 63 1022.9
20260906152923 69 137 7.0 10.0 0.00 0.00 0.00 62 1023.1
20260906152418 68 152 8.0 9.0 0.00 0.00 0.00 64 1023.0
20260906151917 68 182 3.0 8.0 0.00 0.00 0.00 64 1022.6
20260906151413 70 191 6.0 8.0 0.00 0.00 0.00 62 1022.9
20260906150909 69 177 4.0 9.0 0.00 0.00 0.00 63 1022.6
20260906150409 69 173 6.0 9.0 0.00 0.00 0.00 66 1022.8
20260906145908 68 172 6.0 9.0 0.00 0.00 0.00 66 1022.9
20260906145407 67 176 6.0 9.0 0.00 0.00 0.00 68 1023.0
20260906144902 67 143 7.0 10.0 0.00 0.00 0.00 67 1023.0
20260906144357 68 170 7.0 10.0 0.00 0.00 0.00 68 1022.8
20260906143852 67 169 6.0 11.0 0.00 0.00 0.00 69 1022.8
20260906143348 66 170 6.0 12.0 0.00 0.00 0.00 71 1022.8
20260906142844 65 176 7.0 9.0 0.00 0.00 0.00 73 1022.8
20260906142338 64 177 9.0 11.0 0.00 0.00 0.00 76 1022.8
20260906141838 62 178 4.0 6.0 0.00 0.00 0.00 81 1022.8
20260906141333 61 174 2.0 5.0 0.00 0.00 0.00 83 1022.9
20260906140832 60 166 2.0 6.0 0.00 0.00 0.00 83 1022.9
20260906140327 60 180 5.0 7.0 0.00 0.00 0.00 83 1023.0
20260906135824 61 175 6.0 8.0 0.00 0.00 0.00 82 1022.8
20260906135320 62 171 5.0 7.0 0.00 0.00 0.00 80 1023.0
20260906134815 62 170 5.0 6.0 0.00 0.00 0.00 81 1023.0
20260906134310 62 169 5.0 7.0 0.00 0.00 0.00 81 1022.9
20260906133806 61 173 4.0 6.0 0.00 0.00 0.00 81 1022.8
20260906133301 61 175 6.0 7.0 0.00 0.00 0.00 82 1022.8
20260906132751 61 170 4.0 6.0 0.00 0.00 0.00 83 1022.6
20260906132246 60 177 4.0 6.0 0.00 0.00 0.00 84 1022.8
20260906131741 60 166 4.0 8.0 0.00 0.00 0.00 85 1022.9
20260906131236 59 175 7.0 8.0 0.00 0.00 0.00 86 1022.9
20260906130732 59 201 4.0 5.0 0.00 0.00 0.00 86 1022.6
20260906130227 59 167 4.0 6.0 0.00 0.00 0.00 86 1022.8
20260906125725 58 162 5.0 7.0 0.00 0.00 0.00 87 1022.6
20260906125223 58 175 4.0 7.0 0.00 0.00 0.00 88 1022.6
20260906124723 57 171 3.0 6.0 0.00 0.00 0.00 89 1022.6
20260906124219 57 201 4.0 6.0 0.00 0.00 0.00 88 1022.5
20260906123718 57 209 4.0 6.0 0.00 0.00 0.00 88 1022.8
20260906123213 57 193 3.0 5.0 0.00 0.00 0.00 89 1022.6
20260906122712 57 186 5.0 6.0 0.00 0.00 0.00 88 1022.5
20260906122208 57 185 3.0 5.0 0.00 0.00 0.00 88 1022.6
20260906121705 57 195 3.0 6.0 0.00 0.00 0.00 88 1022.5
20260906121200 58 190 6.0 7.0 0.00 0.00 0.00 86 1022.4
20260906120656 58 165 6.0 10.0 0.00 0.00 0.00 88 1022.3
20260906120154 58 171 5.0 10.0 0.00 0.00 0.00 87 1022.4
20260906115653 58 174 6.0 9.0 0.00 0.00 0.00 87 1022.2
20260906115149 58 179 6.0 11.0 0.00 0.00 0.00 86 1022.2
20260906114648 58 178 6.0 9.0 0.00 0.00 0.00 85 1022.3
20260906114143 58 167 5.0 10.0 0.00 0.00 0.00 84 1022.5
20260906113643 58 173 6.0 10.0 0.00 0.00 0.00 84 1022.4
20260906113143 58 180 6.0 9.0 0.00 0.00 0.00 83 1022.3
20260906112642 58 181 4.0 6.0 0.00 0.00 0.00 82 1022.5
20260906112140 59 187 4.0 10.0 0.00 0.00 0.00 82 1022.4
20260906111639 59 173 7.0 10.0 0.00 0.00 0.00 81 1022.4
20260906111134 59 180 9.0 9.0 0.00 0.00 0.00 81 1022.4
20260906110629 59 179 3.0 6.0 0.00 0.00 0.00 79 1022.4
20260906110130 59 187 4.0 6.0 0.00 0.00 0.00 78 1022.4
20260906105624 59 171 3.0 6.0 0.00 0.00 0.00 78 1022.3
20260906105121 59 177 4.0 7.0 0.00 0.00 0.00 75 1022.4
20260906104620 59 189 4.0 7.0 0.00 0.00 0.00 75 1022.3
20260906104119 59 180 3.0 7.0 0.00 0.00 0.00 73 1022.5
20260906103617 59 197 3.0 4.0 0.00 0.00 0.00 74 1022.5
20260906103113 59 189 3.0 4.0 0.00 0.00 0.00 72 1022.4
20260906102613 59 220 3.0 6.0 0.00 0.00 0.00 70 1022.5
20260906102109 60 155 2.0 7.0 0.00 0.00 0.00 70 1022.3
20260906101608 60 189 2.0 4.0 0.00 0.00 0.00 70 1022.4
20260906101108 60 189 4.0 6.0 0.00 0.00 0.00 70 1022.4
20260906100604 61 194 5.0 5.0 0.00 0.00 0.00 70 1022.3
20260906100104 61 202 3.0 5.0 0.00 0.00 0.00 70 1022.4
20260906095604 61 236 2.0 4.0 0.00 0.00 0.00 70 1022.3
20260906095059 61 227 4.0 7.0 0.00 0.00 0.00 71 1022.2
20260906094558 61 243 3.0 6.0 0.00 0.00 0.00 70 1022.2
20260906094054 61 233 5.0 6.0 0.00 0.00 0.00 70 1022.0
20260906093550 61 253 2.0 6.0 0.00 0.00 0.00 70 1022.2
20260906093045 61 238 5.0 7.0 0.00 0.00 0.00 69 1021.9
20260906092540 61 231 4.0 6.0 0.00 0.00 0.00 69 1021.9
20260906092035 61 234 6.0 9.0 0.00 0.00 0.00 69 1022.0
20260906091531 61 238 4.0 6.0 0.00 0.00 0.00 69 1022.0
20260906091028 60 236 6.0 7.0 0.00 0.00 0.00 69 1022.0
20260906090528 59 231 6.0 9.0 0.00 0.00 0.00 70 1021.9
20260906090023 59 241 3.0 4.0 0.00 0.00 0.00 70 1022.2
20260906085521 58 221 2.0 5.0 0.00 0.00 0.00 69 1022.2
20260906085021 58 218 2.0 4.0 0.00 0.00 0.00 69 1021.9
20260906084521 58 204 3.0 6.0 0.00 0.00 0.00 69 1021.8
20260906084020 57 231 2.0 6.0 0.00 0.00 0.00 69 1022.0
20260906083516 58 187 2.0 6.0 0.00 0.00 0.00 68 1021.9
20260906083015 58 213 5.0 6.0 0.00 0.00 0.00 69 1022.2
20260906082511 59 175 3.0 4.0 0.00 0.00 0.00 70 1022.3
20260906082007 59 180 3.0 6.0 0.00 0.00 0.00 69 1022.5
20260906081502 60 241 2.0 7.0 0.00 0.00 0.00 69 1022.4
20260906080957 59 249 4.0 9.0 0.00 0.00 0.00 73 1022.3
20260906080454 59 233 5.0 6.0 0.00 0.00 0.00 74 1022.5
20260906075949 58 261 3.0 4.0 0.00 0.00 0.00 78 1022.4
20260906075444 57 237 2.0 3.0 0.00 0.00 0.00 79 1022.6
20260906074939 58 267 4.0 6.0 0.00 0.00 0.00 77 1022.2
20260906074438 60 259 6.0 7.0 0.00 0.00 0.00 75 1022.3
20260906073937 62 260 6.0 6.0 0.00 0.00 0.00 75 1022.4
20260906073432 61 255 6.0 9.0 0.00 0.00 0.00 77 1022.2
20260906072928 60 258 6.0 8.0 0.00 0.00 0.00 78 1022.3
20260906072423 61 260 4.0 6.0 0.00 0.00 0.00 77 1022.4
20260906071919 60 239 5.0 7.0 0.00 0.00 0.00 78 1022.3
20260906071414 61 239 4.0 6.0 0.00 0.00 0.00 78 1022.2
20260906070911 60 244 4.0 7.0 0.00 0.00 0.00 79 1022.5
20260906070407 59 230 4.0 6.0 0.00 0.00 0.00 81 1022.5
20260906065902 58 250 3.0 4.0 0.00 0.00 0.00 81 1022.4
20260906065356 58 261 3.0 4.0 0.00 0.00 0.00 80 1022.5
20260906064852 59 271 3.0 4.0 0.00 0.00 0.00 80 1022.6
20260906064349 58 275 4.0 5.0 0.00 0.00 0.00 81 1022.6
20260906063848 59 262 4.0 4.0 0.00 0.00 0.00 79 1022.6
20260906063344 59 259 3.0 4.0 0.00 0.00 0.00 79 1022.6
20260906062838 59 233 3.0 3.0 0.00 0.00 0.00 79 1022.5
20260906062338 59 257 2.0 4.0 0.00 0.00 0.00 79 1022.8
20260906061833 59 263 4.0 4.0 0.00 0.00 0.00 80 1022.4
20260906061330 59 271 3.0 5.0 0.00 0.00 0.00 78 1022.4
20260906060824 59 290 4.0 4.0 0.00 0.00 0.00 79 1022.5
20260906060322 59 272 3.0 4.0 0.00 0.00 0.00 80 1022.5
20260906055818 59 286 3.0 4.0 0.00 0.00 0.00 80 1022.6
20260906055313 59 297 2.0 4.0 0.00 0.00 0.00 78 1022.6
20260906054808 59 272 3.0 3.0 0.00 0.00 0.00 80 1022.6
20260906054303 59 349 2.0 3.0 0.00 0.00 0.00 78 1022.4
20260906053800 60 271 3.0 3.0 0.00 0.00 0.00 77 1022.5
20260906053255 60 289 2.0 3.0 0.00 0.00 0.00 77 1022.3
20260906052750 60 277 2.0 5.0 0.00 0.00 0.00 78 1022.4
20260906052246 61 335 2.0 3.0 0.00 0.00 0.00 76 1022.4
20260906051743 61 336 3.0 3.0 0.00 0.00 0.00 77 1022.3
20260906051243 60 309 3.0 4.0 0.00 0.00 0.00 77 1022.4
20260906050738 60 0 2.0 2.0 0.00 0.00 0.00 76 1022.6
20260906050233 61 281 4.0 4.0 0.00 0.00 0.00 74 1022.5
20260906045732 61 349 3.0 4.0 0.00 0.00 0.00 75 1022.5
20260906045227 62 335 2.0 3.0 0.00 0.00 0.00 74 1022.5
20260906044722 62 352 3.0 5.0 0.00 0.00 0.00 73 1022.3
20260906044218 62 339 3.0 3.0 0.00 0.00 0.00 73 1022.3
20260906043714 62 348 3.0 4.0 0.00 0.00 0.00 72 1022.5
20260906043210 63 351 1.0 4.0 0.00 0.00 0.00 71 1022.4
20260906042709 63 358 2.0 3.0 0.00 0.00 0.00 71 1022.3
20260906042208 64 29 2.0 4.0 0.00 0.00 0.00 71 1022.4
20260906041704 63 13 2.0 5.0 0.00 0.00 0.00 71 1022.4
20260906041204 64 359 3.0 4.0 0.00 0.00 0.00 70 1022.5
20260906040700 64 4 3.0 6.0 0.00 0.00 0.00 68 1022.4
20260906040155 65 9 5.0 6.0 0.00 0.00 0.00 68 1022.4
20260906035651 65 18 4.0 9.0 0.00 0.00 0.00 67 1022.3
20260906035146 66 9 6.0 9.0 0.00 0.00 0.00 65 1022.3
20260906034641 66 347 6.0 7.0 0.00 0.00 0.00 61 1022.3
20260906034136 66 329 5.0 6.0 0.00 0.00 0.00 57 1021.9
20260906033632 67 319 6.0 7.0 0.00 0.00 0.00 53 1021.9
20260906033132 68 327 4.0 5.0 0.00 0.00 0.00 49 1022.0
20260906032628 68 341 3.0 6.0 0.00 0.00 0.00 49 1022.2
20260906032127 69 344 4.0 6.0 0.00 0.00 0.00 47 1021.9
20260906031623 69 345 5.0 7.0 0.00 0.00 0.00 45 1021.9
20260906031119 70 3 4.0 6.0 0.00 0.00 0.00 40 1022.0
20260906030618 71 2 4.0 5.0 0.00 0.00 0.00 36 1022.0
20260906030114 72 4 4.0 5.0 0.00 0.00 0.00 35 1022.0
20260906025613 72 337 4.0 6.0 0.00 0.00 0.00 34 1021.7
20260906025111 72 3 6.0 7.0 0.00 0.00 0.00 34 1021.7
20260906024606 70 17 2.0 4.0 0.00 0.00 0.00 36 1021.7
20260906024101 70 302 2.0 2.0 0.00 0.00 0.00 36 1021.4
20260906023557 70 287 3.0 4.0 0.00 0.00 0.00 36 1021.5
20260906023051 71 289 5.0 5.0 0.00 0.00 0.00 35 1021.2
20260906022547 72 287 4.0 6.0 0.00 0.00 0.00 34 1021.2
20260906022042 71 281 6.0 6.0 0.00 0.00 0.00 34 1021.3
20260906021538 71 271 4.0 5.0 0.00 0.00 0.00 35 1021.3
20260906021037 72 266 4.0 6.0 0.00 0.00 0.00 35 1021.7
20260906020536 72 266 5.0 6.0 0.00 0.00 0.00 34 1021.3
20260906020036 72 266 4.0 6.0 0.00 0.00 0.00 34 1021.3
20260906015536 72 280 4.0 5.0 0.00 0.00 0.00 35 1021.1
20260906015035 73 282 4.0 6.0 0.00 0.00 0.00 34 1020.9
20260906014530 73 287 6.0 6.0 0.00 0.00 0.00 34 1021.2
20260906014026 73 282 5.0 7.0 0.00 0.00 0.00 34 1021.1
20260906013521 73 273 4.0 7.0 0.00 0.00 0.00 33 1020.9
20260906013017 73 292 5.0 8.0 0.00 0.00 0.00 33 1020.9
20260906012512 73 295 7.0 8.0 0.00 0.00 0.00 34 1021.1
20260906012011 74 285 3.0 8.0 0.00 0.00 0.00 33 1021.1
20260906011508 75 302 7.0 9.0 0.00 0.00 0.00 32 1021.2
20260906011007 75 301 9.0 10.0 0.00 0.00 0.00 31 1021.2
20260906010503 76 298 8.0 11.0 0.00 0.00 0.00 31 1021.2
20260906005959 77 299 8.0 10.0 0.00 0.00 0.00 30 1021.4
20260906005458 78 299 8.0 11.0 0.00 0.00 0.00 29 1021.3
20260906004956 77 298 9.0 11.0 0.00 0.00 0.00 29 1021.2
20260906004457 77 308 9.0 10.0 0.00 0.00 0.00 29 1021.5
20260906003952 78 303 6.0 9.0 0.00 0.00 0.00 28 1021.4
20260906003447 79 303 7.0 12.0 0.00 0.00 0.00 28 1021.2
20260906002942 80 305 10.0 13.0 0.00 0.00 0.00 27 1021.3
20260906002442 80 305 11.0 14.0 0.00 0.00 0.00 27 1021.2
20260906001938 81 308 7.0 10.0 0.00 0.00 0.00 25 1021.3
20260906001434 81 316 7.0 11.0 0.00 0.00 0.00 26 1021.2
20260906000928 80 305 11.0 16.0 0.00 0.00 0.00 26 1021.4
20260906000425 82 305 15.0 17.0 0.00 0.00 0.00 26 1021.2
20260905235919 83 301 9.0 15.0 0.00 0.00 0.00 24 1021.4
20260905235418 84 333 11.0 14.0 0.00 0.00 0.00 24 1021.2
20260905234913 83 320 11.0 13.0 0.00 0.00 0.00 24 1021.4
20260905234409 84 308 15.0 15.0 0.00 0.00 0.00 24 1021.2
20260905233903 84 324 10.0 13.0 0.00 0.00 0.00 23 1021.1
20260905233358 84 311 10.0 13.0 0.00 0.00 0.00 23 1021.2
20260905232857 83 317 10.0 11.0 0.00 0.00 0.00 24 1020.9
20260905232354 83 35 5.0 7.0 0.00 0.00 0.00 24 1021.1
20260905231849 83 356 4.0 7.0 0.00 0.00 0.00 23 1020.9
20260905231350 84 2 5.0 9.0 0.00 0.00 0.00 23 1020.9
20260905230847 84 330 3.0 8.0 0.00 0.00 0.00 24 1020.9
20260905230344 84 357 7.0 9.0 0.00 0.00 0.00 23 1021.2
20260905225843 84 6 7.0 9.0 0.00 0.00 0.00 23 1020.9
20260905225338 84 354 6.0 6.0 0.00 0.00 0.00 23 1021.2
20260905224833 84 325 4.0 5.0 0.00 0.00 0.00 23 1020.8
20260905224330 84 91 3.0 8.0 0.00 0.00 0.00 22 1021.1
20260905223830 86 60 8.0 10.0 0.00 0.00 0.00 22 1020.9
20260905223328 85 21 9.0 11.0 0.00 0.00 0.00 22 1020.8
20260905222822 85 84 4.0 6.0 0.00 0.00 0.00 22 1020.8
20260905222321 84 112 4.0 9.0 0.00 0.00 0.00 23 1021.1
20260905221817 83 74 3.0 10.0 0.00 0.00 0.00 23 1021.1
20260905221314 83 63 3.0 6.0 0.00 0.00 0.00 23 1021.2
20260905220810 83 348 5.0 8.0 0.00 0.00 0.00 23 1021.2
20260905220306 83 3 6.0 8.0 0.00 0.00 0.00 23 1021.1
20260905215805 83 12 8.0 12.0 0.00 0.00 0.00 23 1021.2
20260905215300 83 35 7.0 12.0 0.00 0.00 0.00 23 1021.2
20260905214756 84 42 9.0 10.0 0.00 0.00 0.00 23 1021.2
20260905214252 84 68 9.0 10.0 0.00 0.00 0.00 22 1021.2
20260905213747 83 83 4.0 8.0 0.00 0.00 0.00 22 1021.1
20260905213244 84 146 4.0 10.0 0.00 0.00 0.00 22 1021.2
20260905212744 84 79 3.0 10.0 0.00 0.00 0.00 22 1021.2
20260905212243 86 96 6.0 11.0 0.00 0.00 0.00 21 1021.3
20260905211743 87 96 10.0 15.0 0.00 0.00 0.00 21 1021.2